[[{"header":{"parameterUnit":"m.s-1","parameterCategory":2,"la1":30.2991,"la2":30.254,"lo1":-89.0895,"lo2":-89.0444,"dy":0.0017,"dx":0.0017,"nx":28,"ny":28,"refTime":"2025-04-20T03:00:00:Z","depth":"0","parameterNumber":2,"parameterNumberName":"U-component_of_CURRENTS"},"data":[0,0,0,0,0,0,0,0,0,0,0,0,0,0,0,0,0,0,0,0,0,0,0,0,0,0,0,0,0,0,0,0,0,0,0,0,0,0,0,0,0,0,0,0,0,0,0,0,0,0,0,0,0,0,0,0,0,0,0.2695,0.2695,0,0.2685,0.2685,0.2685,0.2676,0.2675,0.2675,0.2675,0.2628,0.2627,0.2626,0,0,0,0,0,0,0,0,0,0,0,0,0,0.2742,0.2741,0.2695,0.2695,0.2695,0.2685,0.2685,0.2685,0.2676,0.2675,0.2675,0.2675,0.2629,0.2627,0.2626,0,0,0,0,0,0,0,0,0,0,0,0,0,0.2725,0.2741,0.2695,0.2689,0.2689,0.2685,0.2685,0.2685,0.2676,0.2675,0.2675,0.2675,0.2629,0.2627,0.2626,0.2617,0,0,0.262,0.2619,0,0,0,0,0,0,0,0,0.2726,0.2723,0.269,0.269,0.2689,0.2682,0.2685,0.2661,0.2676,0.268,0.2675,0.2675,0.2643,0.264,0.2638,0.2615,0.2613,0.262,0.2619,0.2618,0.2618,0,0,0,0,0,0,0,0.2727,0.2724,0.2691,0.269,0.269,0.27,0.2697,0.268,0.2661,0.268,0.2679,0.2679,0.2642,0.264,0.2637,0.2612,0.262,0.2618,0.2617,0.2617,0.2643,0.2645,0,0,0,0,0,0,0.2728,0.2725,0.2691,0.269,0.2708,0.2699,0.2696,0.2684,0.2662,0.2659,0.2679,0.2679,0.2643,0.2639,0.2635,0.2661,0.2618,0.2616,0.2615,0.2641,0.2644,0.2645,0,0,0,0,0,0,0.2728,0.2724,0.2691,0.2709,0.2705,0.2698,0.2685,0.2684,0.2686,0.2662,0.2658,0.2683,0.2643,0.2638,0.2642,0.2658,0.2616,0.2614,0.2639,0.2642,0.2644,0.2688,0,0,0,0,0,0,0.273,0.2724,0.2721,0.2708,0.2704,0.2694,0.2685,0.2684,0.2686,0.2685,0.2664,0.2659,0.2643,0.2645,0.264,0.2654,0.2613,0.2637,0.2641,0.2644,0.2685,0.2692,0.2699,0,0,0,0,0,0.2731,0.272,0.272,0.2717,0.2697,0.2695,0.2694,0.2689,0.2686,0.2689,0.2688,0.266,0.2663,0.2645,0.2639,0.2653,0.2635,0.264,0.2643,0.2682,0.2691,0.2698,0,0,0,0,0,0,0.274,0.2718,0.2718,0.2701,0.2703,0.2693,0.2692,0.2693,0.2694,0.2694,0.2675,0.2671,0.2686,0.2668,0.2648,0.2675,0.2648,0.2651,0.2679,0.2687,0.2694,0.2695,0.2611,0,0,0,0,0,0.2741,0.273,0.2717,0.2712,0.2706,0.2703,0.2702,0.2702,0.2699,0.2699,0.269,0.2688,0.2698,0.269,0.2692,0.2694,0.2695,0.2705,0.2712,0.2717,0.2718,0.2746,0.2755,0.2659,0.2658,0.2658,0,0,0.2747,0.2734,0.273,0.2715,0.271,0.2709,0.2701,0.2702,0.2714,0.2693,0.2706,0.2711,0.2708,0.2723,0.2727,0.2706,0.2749,0.2722,0.2727,0.2724,0.2751,0.276,0.2768,0.2661,0.2661,0.266,0,0,0.2751,0.2737,0.2727,0.2724,0.2719,0.272,0.2722,0.2717,0.2726,0.274,0.2743,0.2761,0.2755,0.2766,0.2769,0.2814,0.2792,0.2815,0.2836,0.2864,0.2872,0.2879,0.29,0.2908,0.2809,0.2809,0.2809,0,0.2758,0.2738,0.2729,0.272,0.2719,0.2725,0.2722,0.2736,0.2743,0.2756,0.275,0.2784,0.2778,0.2811,0.2832,0.2827,0.2838,0.28,0.2872,0.2879,0.2885,0.2905,0.2913,0.2812,0.2811,0.2811,0.2811,0,0.2759,0.274,0.2734,0.2724,0.2731,0.2727,0.2741,0.2758,0.277,0.2785,0.2825,0.2834,0.2851,0.2861,0.2856,0.2903,0.2896,0.2884,0.2845,0.2897,0.2915,0.2923,0.2816,0.2815,0.2814,0.2813,0,0,0.2767,0.2736,0.2734,0.2718,0.2727,0.2725,0.2759,0.2782,0.281,0.2831,0.2869,0.2897,0.2907,0.2913,0.2919,0.2942,0.2998,0.293,0.293,0.2942,0.306,0.3045,0.3051,0.2997,0.2999,0.3,0.3058,0,0.2764,0.2732,0.2736,0.2724,0.2699,0.2726,0.2756,0.2789,0.2829,0.2872,0.2901,0.294,0.2926,0.2944,0.2967,0.2999,0.302,0.2983,0.3016,0.3017,0.2989,0.3061,0.2978,0.3023,0.3066,0.3067,0.3068,0,0.2762,0.2729,0.2706,0.2692,0.269,0.2702,0.2749,0.2783,0.2857,0.2895,0.2944,0.2972,0.3024,0.3004,0.3067,0.3045,0.3054,0.307,0.3072,0.3045,0.3017,0.2978,0.3035,0.2967,0.308,0.3079,0.3078,0,0.2751,0.2714,0.2689,0.2682,0.2677,0.2689,0.271,0.2782,0.2827,0.2919,0.296,0.3022,0.3061,0.309,0.3124,0.31,0.3193,0.3159,0.3152,0.315,0.308,0.307,0.3064,0.3198,0.3198,0.3197,0.3197,0,0.2743,0.272,0.267,0.2654,0.2632,0.2659,0.2691,0.2739,0.2832,0.2883,0.2962,0.3019,0.3086,0.3143,0.3154,0.3191,0.3216,0.3173,0.3173,0.3095,0.3086,0.3021,0.2988,0.32,0.3199,0.3199,0.3198,0,0.2746,0.2715,0.266,0.2626,0.262,0.2606,0.2658,0.2695,0.2792,0.2869,0.2901,0.3035,0.3116,0.3175,0.3245,0.3231,0.3184,0.3265,0.3172,0.3159,0.3066,0.3039,0.292,0.2823,0.3262,0.3262,0.3262,0,0.2745,0.2715,0.2631,0.2589,0.2569,0.256,0.2571,0.2661,0.2714,0.2867,0.29,0.3027,0.3101,0.3221,0.3247,0.3285,0.3182,0.3213,0.3147,0.3068,0.3037,0.2904,0.282,0.3075,0.3073,0.3072,0.3071,0,0.2727,0.2692,0.264,0.255,0.2516,0.2492,0.2516,0.2551,0.2667,0.2745,0.2858,0.294,0.3085,0.3123,0.3203,0.3208,0.3069,0.3188,0.313,0.2918,0.2748,0.2652,0.3029,0.306,0.3061,0.3062,0.3063,0.3063,0.2705,0.2652,0.2575,0.2489,0.2448,0.241,0.2378,0.2439,0.25,0.2588,0.274,0.2826,0.2982,0.3097,0.3081,0.3034,0.2987,0.2958,0.2941,0.2821,0.2688,0.3046,0.3061,0.3062,0.3063,0.3064,0.3064,0,0.2644,0.2595,0.2523,0.2395,0.2322,0.2332,0.2328,0.2295,0.2313,0.2452,0.254,0.2704,0.2776,0.2867,0.2914,0.2817,0.2658,0.2741,0.2535,0.2471,0.2825,0.278,0.2705,0.2705,0.2705,0.2705,0.2705,0.2705,0.2604,0.2512,0.2463,0.229,0.2218,0.2102,0.2073,0.2058,0.2119,0.2193,0.229,0.2418,0.2666,0.2794,0.2734,0.2659,0.2434,0.2338,0.2295,0.2571,0.2589,0.2606,0.2555,0.2435,0.2435,0.1835,0.1831,0.1828]},{"header":{"parameterUnit":"m.s-1","parameterCategory":2,"la1":30.2991,"la2":30.254,"lo1":-89.0895,"lo2":-89.0444,"dy":0.0017,"dx":0.0017,"nx":28,"ny":28,"refTime":"2025-04-20T03:00:00:Z","depth":"0","parameterNumber":3,"parameterNumberName":"V-component_of_CURRENTS"},"data":[0,0,0,0,0,0,0,0,0,0,0,0,0,0,0,0,0,0,0,0,0,0,0,0,0,0,0,0,0,0,0,0,0,0,0,0,0,0,0,0,0,0,0,0,0,0,0,0,0,0,0,0,0,0,0,0,0,0,0.0263,0.0262,0,0.0169,0.0168,0.0167,0.0122,0.0122,0.0122,0.0122,0.0054,0.0052,0.005,0,0,0,0,0,0,0,0,0,0,0,0,0,0.0309,0.0309,0.0263,0.0262,0.0261,0.0169,0.0168,0.0166,0.0122,0.0122,0.0122,0.0122,0.0054,0.0052,0.005,0,0,0,0,0,0,0,0,0,0,0,0,0,0.026,0.0309,0.0263,0.0227,0.0223,0.0169,0.0168,0.0166,0.0122,0.0122,0.0122,0.0122,0.0055,0.0052,0.005,0.0032,0,0,0.0041,0.004,0,0,0,0,0,0,0,0,0.0263,0.0258,0.0234,0.023,0.0225,0.0157,0.0159,0.0122,0.0122,0.0161,0.0122,0.0122,0.009,0.0085,0.0067,0.0029,0.0026,0.0041,0.0039,0.0038,0.0037,0,0,0,0,0,0,0,0.0266,0.0261,0.0226,0.0232,0.0227,0.0183,0.0177,0.0151,0.0127,0.0157,0.0154,0.0143,0.0088,0.007,0.0065,0.0025,0.0041,0.0039,0.0037,0.0036,-0.0023,-0.0023,0,0,0,0,0,0,0.0282,0.0265,0.0229,0.0223,0.0244,0.0182,0.0176,0.0179,0.0127,0.0118,0.0143,0.0141,0.0074,0.0068,0.0063,0.0058,0.0038,0.0035,0.0034,-0.0023,-0.0023,-0.0023,0,0,0,0,0,0,0.0284,0.0281,0.0233,0.0241,0.0232,0.0182,0.0186,0.0177,0.0162,0.0115,0.0108,0.0137,0.0074,0.0066,0.0046,0.0054,0.0034,0.0032,-0.0024,-0.0023,-0.0023,0.0036,0,0,0,0,0,0,0.0286,0.0282,0.029,0.0243,0.0232,0.0209,0.0185,0.0175,0.0155,0.0152,0.0108,0.0102,0.0074,0.005,0.0043,0.005,0.003,-0.0024,-0.0023,-0.0023,0.0034,0.0038,0.0042,0,0,0,0,0,0.0288,0.0302,0.0291,0.0286,0.0245,0.021,0.02,0.0164,0.0155,0.0151,0.0123,0.0103,0.0046,0.0048,0.004,0.0046,-0.0024,-0.0023,-0.0023,0.0032,0.0037,0.0042,0,0,0,0,0,0,0.0322,0.0297,0.0285,0.029,0.0255,0.0202,0.0195,0.017,0.0143,0.0144,0.0103,0.0094,0.0079,0.0053,0.0056,0.0028,0.0008,0.0007,0.0053,0.0057,0.0061,0.0081,0.0027,0,0,0,0,0,0.0335,0.0342,0.0302,0.0304,0.0293,0.0246,0.0227,0.0203,0.0171,0.0158,0.0127,0.0097,0.0071,0.0059,0.003,0.0016,-0.001,0.0014,0.0018,0.0022,0.0031,-0.0002,-0.0,-0.0023,-0.0023,-0.0023,0,0,0.0347,0.0334,0.0337,0.0312,0.0285,0.0273,0.0235,0.0215,0.0206,0.0156,0.0143,0.0109,0.007,0.0053,0.0044,0.0035,0.0013,0.0022,0.0026,0.0033,-0.0002,0.0001,0.0003,-0.0022,-0.0023,-0.0023,0,0,0.0375,0.0367,0.038,0.0357,0.0324,0.0297,0.0295,0.0249,0.0232,0.0208,0.0175,0.0149,0.0106,0.0081,0.0063,0.0071,0.0034,0.0061,0.0097,0.0065,0.0067,0.0068,0.0036,0.0034,0.0064,0.0064,0.0064,0,0.0387,0.0402,0.0375,0.0376,0.0364,0.0314,0.0319,0.0291,0.0243,0.0238,0.0215,0.0155,0.012,0.0104,0.0104,0.0082,0.0056,0.0085,0.0071,0.0072,0.0072,0.0039,0.0036,0.0067,0.0066,0.0066,0.0066,0,0.0424,0.0428,0.0432,0.0425,0.0409,0.0402,0.0364,0.035,0.0323,0.0295,0.0271,0.0215,0.0184,0.0164,0.0135,0.0123,0.0101,0.008,0.0064,0.0078,0.0042,0.0037,0.0071,0.007,0.0069,0.0068,0,0,0.0464,0.0461,0.0461,0.0466,0.0435,0.0427,0.0421,0.0403,0.0412,0.0355,0.0358,0.0297,0.0268,0.0245,0.0202,0.0168,0.0142,0.013,0.0127,0.0106,0.0069,0.0071,0.0066,0.0118,0.0118,0.0117,0.0042,0,0.0496,0.0524,0.051,0.0524,0.0532,0.0493,0.0492,0.047,0.0449,0.0439,0.0377,0.036,0.0299,0.0288,0.0244,0.0174,0.0134,0.0164,0.0051,0.0048,0.0054,0.0063,0.0094,0.0032,0.0038,0.0037,0.0037,0,0.0537,0.0549,0.0582,0.0581,0.0582,0.0582,0.0586,0.0581,0.0555,0.0541,0.051,0.046,0.0409,0.0351,0.0235,0.0258,0.017,0.0105,0.01,0.0081,0.0043,0.0017,0.0023,-0.0104,0.003,0.003,0.0031,0,0.0591,0.0596,0.0632,0.063,0.0623,0.063,0.0626,0.0614,0.0636,0.0613,0.0624,0.0545,0.0518,0.0399,0.0264,0.0248,0.0134,0.0094,0.0008,0.0006,0.0002,0.0001,-0.0119,0.0005,0.0005,0.0005,0.0005,0,0.0638,0.0657,0.0658,0.0677,0.0706,0.0684,0.0729,0.0713,0.0727,0.0767,0.0684,0.0698,0.0529,0.0441,0.0298,0.0154,0.0158,0.002,-0.0009,0.0023,0.0025,-0.0112,-0.0199,0.0002,0.0003,0.0003,0.0004,0,0.0693,0.0695,0.0726,0.0733,0.0736,0.0758,0.0794,0.0835,0.0833,0.0883,0.088,0.0818,0.071,0.0534,0.0351,0.0216,-0.0011,0.0007,0.0058,0.0037,-0.0161,-0.0245,-0.0411,-0.0473,-0.0101,-0.0101,-0.0101,0,0.0725,0.0755,0.0779,0.0799,0.0802,0.0837,0.0871,0.0886,0.0945,0.0963,0.0999,0.0913,0.0881,0.062,0.037,0.0128,-0.002,-0.0013,-0.0042,-0.016,-0.0277,-0.0342,-0.0387,-0.0034,-0.0034,-0.0034,-0.0034,0,0.0786,0.0799,0.0828,0.0873,0.0906,0.0959,0.101,0.1073,0.1105,0.1154,0.1202,0.1177,0.0936,0.0723,0.0392,0.0217,-0.0097,-0.0016,-0.0155,-0.0244,-0.0307,-0.0383,-0.0002,-0.0032,-0.0032,-0.0032,-0.0032,-0.0032,0.0827,0.0859,0.0904,0.0939,0.0985,0.1063,0.1122,0.1208,0.1308,0.1388,0.1363,0.137,0.1052,0.0619,0.036,-0.007,-0.0106,-0.0202,-0.0299,-0.0356,-0.0404,-0.0013,-0.0063,-0.0063,-0.0064,-0.0064,-0.0064,0,0.0873,0.0914,0.0965,0.1011,0.1067,0.1086,0.1203,0.1282,0.1408,0.151,0.1562,0.1448,0.1045,0.0625,0.0039,-0.0281,-0.0408,-0.0463,-0.0555,-0.0591,-0.0251,-0.0234,-0.0302,-0.0302,-0.0302,-0.0302,-0.0301,-0.0301,0.0899,0.0959,0.0983,0.1064,0.1103,0.1193,0.1261,0.1392,0.1502,0.1642,0.1692,0.1712,0.1417,0.0329,-0.0379,-0.0547,-0.0788,-0.0849,-0.0978,-0.0749,-0.0732,-0.0716,-0.0719,-0.0888,-0.0888,-0.1253,-0.1257,-0.126]}],[{"header":{"parameterUnit":"m.s-1","parameterCategory":2,"la1":30.2991,"la2":30.254,"lo1":-89.0895,"lo2":-89.0444,"dy":0.0017,"dx":0.0017,"nx":28,"ny":28,"refTime":"2025-04-20T03:00:00:Z","depth":"2","parameterNumber":2,"parameterNumberName":"U-component_of_CURRENTS"},"data":[0,0,0,0,0,0,0,0,0,0,0,0,0,0,0,0,0,0,0,0,0,0,0,0,0,0,0,0,0,0,0,0,0,0,0,0,0,0,0,0,0,0,0,0,0,0,0,0,0,0,0,0,0,0,0,0,0,0,0.2442,0.2443,0,0.2469,0.2469,0.2469,0.2474,0.2474,0.2474,0.2474,0.2459,0.2458,0.2458,0,0,0,0,0,0,0,0,0,0,0,0,0,0.2372,0.2373,0.2442,0.2443,0.2443,0.2469,0.2469,0.2469,0.2474,0.2474,0.2474,0.2474,0.2459,0.2458,0.2458,0,0,0,0,0,0,0,0,0,0,0,0,0,0.2398,0.2374,0.2442,0.2451,0.2453,0.2469,0.2469,0.2469,0.2474,0.2474,0.2474,0.2474,0.2459,0.2458,0.2458,0.2451,0,0,0.2456,0.2455,0,0,0,0,0,0,0,0,0.2397,0.24,0.2449,0.2451,0.2452,0.2471,0.2439,0.2462,0.2474,0.2462,0.2474,0.2474,0.2461,0.246,0.2461,0.245,0.2449,0.2455,0.2455,0.2455,0.2454,0,0,0,0,0,0,0,0.2395,0.2399,0.2449,0.245,0.2452,0.2447,0.245,0.2443,0.2457,0.2463,0.2464,0.2473,0.2461,0.2462,0.246,0.2449,0.2455,0.2455,0.2454,0.2454,0.2499,0.25,0,0,0,0,0,0,0.24,0.2398,0.2449,0.245,0.2428,0.2448,0.2452,0.2462,0.2458,0.2459,0.2473,0.2473,0.2463,0.2461,0.246,0.2498,0.2455,0.2454,0.2454,0.2497,0.2499,0.2501,0,0,0,0,0,0,0.2398,0.2404,0.2448,0.2427,0.2433,0.245,0.2461,0.2463,0.2475,0.2467,0.2466,0.2485,0.2463,0.2461,0.2475,0.2496,0.2454,0.2453,0.2495,0.2498,0.25,0.2545,0,0,0,0,0,0,0.2396,0.2403,0.2414,0.2428,0.2434,0.2466,0.2461,0.2463,0.2481,0.2482,0.2477,0.2475,0.2463,0.2476,0.2474,0.2494,0.2452,0.2493,0.2496,0.2499,0.2542,0.2549,0.2555,0,0,0,0,0,0.2393,0.2405,0.2415,0.2421,0.2448,0.2467,0.247,0.248,0.2482,0.249,0.2495,0.2475,0.2494,0.2477,0.2474,0.2494,0.2492,0.2495,0.2499,0.2539,0.2548,0.2555,0,0,0,0,0,0,0.2384,0.2408,0.2418,0.2438,0.2458,0.247,0.2481,0.2488,0.2498,0.2501,0.2489,0.2488,0.2513,0.25,0.2481,0.252,0.2492,0.2495,0.2524,0.2532,0.2538,0.254,0.2452,0,0,0,0,0,0.2388,0.24,0.2426,0.2443,0.2456,0.2471,0.2482,0.2491,0.2502,0.2507,0.2506,0.2511,0.2524,0.2525,0.2531,0.2542,0.2543,0.2558,0.2565,0.257,0.2573,0.2601,0.261,0.2513,0.2513,0.2513,0,0,0.2385,0.2405,0.2409,0.2441,0.2457,0.2478,0.2477,0.25,0.2518,0.2502,0.2526,0.2534,0.2535,0.2558,0.2567,0.2548,0.2601,0.2575,0.2579,0.2579,0.2605,0.2615,0.2623,0.2515,0.2515,0.2514,0,0,0.2389,0.241,0.2423,0.2443,0.2477,0.2488,0.2499,0.2522,0.2536,0.2559,0.2563,0.2587,0.2593,0.2605,0.2609,0.2656,0.2641,0.2661,0.2687,0.2714,0.2722,0.2729,0.2749,0.2757,0.2657,0.2658,0.2658,0,0.2391,0.2412,0.243,0.2455,0.2473,0.2496,0.2517,0.2536,0.256,0.2576,0.2574,0.2617,0.2617,0.2652,0.2674,0.267,0.2681,0.2652,0.2722,0.2729,0.2735,0.2754,0.2762,0.266,0.266,0.266,0.2659,0,0.2404,0.2426,0.2439,0.2476,0.2497,0.2519,0.2551,0.2575,0.2594,0.2612,0.2658,0.2671,0.2694,0.2706,0.2702,0.2752,0.2744,0.2731,0.2697,0.2747,0.2764,0.2772,0.2664,0.2663,0.2662,0.2662,0,0,0.2393,0.2438,0.2443,0.246,0.251,0.2523,0.2567,0.2605,0.2636,0.2666,0.2707,0.2741,0.2753,0.2761,0.2768,0.2793,0.285,0.2783,0.2783,0.2796,0.2912,0.2884,0.2889,0.285,0.2851,0.2852,0.2908,0,0.2401,0.2434,0.2461,0.2492,0.2511,0.2549,0.2582,0.2622,0.2664,0.271,0.2742,0.2784,0.2773,0.2796,0.282,0.285,0.2873,0.2836,0.2867,0.2868,0.2831,0.2898,0.2679,0.2708,0.2915,0.2916,0.2917,0,0.2408,0.2428,0.2456,0.2496,0.2509,0.2531,0.259,0.2627,0.2701,0.2741,0.2793,0.2821,0.2876,0.2858,0.2921,0.2899,0.2909,0.2924,0.2926,0.2887,0.2855,0.2692,0.2714,0.293,0.2929,0.2928,0.2928,0,0.2379,0.2424,0.244,0.2455,0.2507,0.2527,0.2558,0.263,0.2676,0.2769,0.2814,0.2875,0.2917,0.2945,0.2977,0.2955,0.3044,0.3011,0.2992,0.299,0.2803,0.2782,0.3051,0.3051,0.3051,0.305,0.305,0,0.2374,0.2383,0.2424,0.2432,0.2451,0.2502,0.2545,0.2599,0.2691,0.2742,0.2822,0.2877,0.2943,0.2996,0.3006,0.3035,0.3065,0.3014,0.301,0.2815,0.2795,0.298,0.2972,0.3052,0.3052,0.3052,0.3051,0,0.2336,0.2363,0.238,0.2426,0.2438,0.2451,0.2526,0.2565,0.2663,0.274,0.2773,0.2898,0.2973,0.3027,0.3092,0.3072,0.3101,0.3097,0.2867,0.2836,0.3018,0.3011,0.3081,0.308,0.308,0.308,0.3079,0,0.2321,0.2332,0.2364,0.2366,0.2383,0.2414,0.2439,0.2538,0.259,0.2738,0.2768,0.2888,0.2949,0.3052,0.3055,0.3082,0.3115,0.2882,0.28,0.3036,0.3025,0.3019,0.3012,0.2568,0.2564,0.256,0.2557,0,0.2294,0.2306,0.231,0.2323,0.2336,0.2351,0.2397,0.243,0.2546,0.262,0.2718,0.2788,0.2904,0.2854,0.2913,0.289,0.2863,0.2812,0.3118,0.2605,0.256,0.2548,0.2556,0.2525,0.2528,0.2531,0.2532,0.2534,0.227,0.2256,0.2268,0.2264,0.2277,0.2271,0.2254,0.2319,0.2374,0.2445,0.258,0.2609,0.2675,0.2664,0.2597,0.2549,0.2742,0.2611,0.2618,0.263,0.2572,0.253,0.2478,0.248,0.2483,0.2485,0.2487,0,0.223,0.2214,0.2213,0.2185,0.2159,0.22,0.221,0.2177,0.2186,0.2285,0.235,0.2217,0.2216,0.2264,0.2158,0.218,0.2116,0.2079,0.1968,0.2005,0.2036,0.1942,0.1684,0.168,0.1677,0.1675,0,0,0.2199,0.2156,0.214,0.2064,0.2056,0.1986,0.1967,0.1941,0.1971,0.1952,0.1957,0.2132,0.2229,0.1926,0.1905,0.177,0.1859,0.17,0.2358,0.2267,0.2293,0.2375,0.2278,0,0,0,0,0]},{"header":{"parameterUnit":"m.s-1","parameterCategory":2,"la1":30.2991,"la2":30.254,"lo1":-89.0895,"lo2":-89.0444,"dy":0.0017,"dx":0.0017,"nx":28,"ny":28,"refTime":"2025-04-20T03:00:00:Z","depth":"2","parameterNumber":3,"parameterNumberName":"V-component_of_CURRENTS"},"data":[0,0,0,0,0,0,0,0,0,0,0,0,0,0,0,0,0,0,0,0,0,0,0,0,0,0,0,0,0,0,0,0,0,0,0,0,0,0,0,0,0,0,0,0,0,0,0,0,0,0,0,0,0,0,0,0,0,0,0.0136,0.0135,0,0.0056,0.0055,0.0054,0.001,0.001,0.001,0.001,-0.0047,-0.0048,-0.0049,0,0,0,0,0,0,0,0,0,0,0,0,0,0.0152,0.0153,0.0136,0.0135,0.0134,0.0056,0.0055,0.0054,0.001,0.001,0.001,0.001,-0.0046,-0.0048,-0.005,0,0,0,0,0,0,0,0,0,0,0,0,0,0.0116,0.0153,0.0136,0.0104,0.01,0.0056,0.0055,0.0053,0.001,0.001,0.001,0.001,-0.0046,-0.0048,-0.005,-0.0063,0,0,-0.0057,-0.0058,0,0,0,0,0,0,0,0,0.0118,0.0115,0.0109,0.0106,0.0102,0.0044,0.004,0.0016,0.001,0.0044,0.001,0.001,-0.0014,-0.0019,-0.0035,-0.0065,-0.0068,-0.0057,-0.0058,-0.0059,-0.006,0,0,0,0,0,0,0,0.0121,0.0118,0.0103,0.0109,0.0104,0.0059,0.0055,0.0034,0.0016,0.0041,0.0038,0.003,-0.0016,-0.0033,-0.0037,-0.0069,-0.0057,-0.0059,-0.006,-0.0061,-0.0107,-0.0107,0,0,0,0,0,0,0.0138,0.0121,0.0106,0.0101,0.0111,0.0059,0.0054,0.0062,0.0016,0.0009,0.003,0.0028,-0.0029,-0.0034,-0.0039,-0.0038,-0.0059,-0.0061,-0.0063,-0.0107,-0.0107,-0.0107,0,0,0,0,0,0,0.0139,0.0138,0.0109,0.0108,0.0102,0.006,0.0068,0.006,0.0047,0.0007,0.0001,0.0026,-0.0029,-0.0035,-0.0052,-0.0041,-0.0062,-0.0064,-0.0108,-0.0107,-0.0107,-0.0047,0,0,0,0,0,0,0.014,0.0139,0.0148,0.0111,0.0103,0.0093,0.0068,0.0059,0.0043,0.004,0.0002,-0.0004,-0.003,-0.0048,-0.0054,-0.0044,-0.0066,-0.0108,-0.0107,-0.0107,-0.005,-0.0045,-0.0042,0,0,0,0,0,0.0141,0.016,0.0149,0.0147,0.0118,0.0093,0.0085,0.0053,0.0043,0.0041,0.0014,-0.0003,-0.0051,-0.005,-0.0057,-0.0047,-0.0108,-0.0107,-0.0107,-0.0051,-0.0046,-0.0042,0,0,0,0,0,0,0.0168,0.0156,0.0144,0.0157,0.013,0.0087,0.0084,0.006,0.0035,0.0036,-0.0002,-0.0009,-0.0021,-0.0044,-0.0041,-0.0061,-0.0082,-0.0083,-0.0037,-0.0033,-0.0029,-0.001,-0.0068,0,0,0,0,0,0.018,0.0193,0.0164,0.0171,0.0166,0.0125,0.0111,0.009,0.0063,0.0051,0.0024,-0.0004,-0.0027,-0.0036,-0.0061,-0.0069,-0.0095,-0.0069,-0.0065,-0.0061,-0.0052,-0.0085,-0.0082,-0.0106,-0.0106,-0.0106,0,0,0.0188,0.0185,0.0189,0.0178,0.0157,0.0154,0.0117,0.0105,0.0099,0.0051,0.0041,0.001,-0.0027,-0.0039,-0.0045,-0.0054,-0.0068,-0.0061,-0.0057,-0.005,-0.0084,-0.0082,-0.008,-0.0106,-0.0106,-0.0106,0,0,0.0217,0.0215,0.0236,0.0221,0.02,0.0177,0.0178,0.0142,0.0127,0.0108,0.0074,0.0052,0.0015,-0.0008,-0.0024,-0.0013,-0.0048,-0.0022,0.0016,-0.0016,-0.0014,-0.0013,-0.0042,-0.0044,-0.0018,-0.0018,-0.0018,0,0.0226,0.0252,0.0233,0.0246,0.0239,0.0195,0.0207,0.0183,0.0143,0.0137,0.0115,0.0061,0.003,0.0017,0.0019,-0.0002,-0.0027,0.0003,-0.0009,-0.0009,-0.0008,-0.0039,-0.0041,-0.0015,-0.0015,-0.0016,-0.0016,0,0.0269,0.0283,0.0293,0.03,0.029,0.0291,0.0261,0.0249,0.0223,0.0197,0.0176,0.0125,0.0096,0.0078,0.0051,0.0042,0.0021,-0.0001,-0.0017,-0.0002,-0.0036,-0.0039,-0.0011,-0.0012,-0.0013,-0.0013,0,0,0.0301,0.0322,0.0324,0.0336,0.032,0.0317,0.0316,0.0303,0.031,0.026,0.0261,0.0209,0.018,0.0159,0.0118,0.0088,0.0064,0.005,0.0047,0.0029,-0.0005,-0.0011,-0.0016,0.0039,0.0039,0.0039,-0.003,0,0.0336,0.0383,0.0377,0.0403,0.0422,0.0389,0.039,0.0371,0.0351,0.034,0.0282,0.0267,0.0211,0.0201,0.016,0.0092,0.0057,0.0085,-0.0024,-0.0027,-0.0028,-0.002,0.0004,-0.0054,-0.0033,-0.0034,-0.0035,0,0.0377,0.0404,0.0451,0.0466,0.0471,0.0474,0.048,0.0477,0.0451,0.0437,0.0408,0.0361,0.0314,0.026,0.0151,0.0172,0.0092,0.003,0.0025,-0.0001,-0.004,-0.0068,-0.0062,-0.0041,-0.0041,-0.004,-0.004,0,0.0419,0.045,0.0495,0.0499,0.051,0.0519,0.0519,0.0507,0.0527,0.0505,0.0515,0.0441,0.0413,0.0303,0.0175,0.0163,0.0051,0.0016,-0.0068,-0.0069,-0.0081,-0.0082,-0.0065,-0.0065,-0.0064,-0.0064,-0.0064,0,0.0462,0.0489,0.0518,0.0541,0.058,0.0568,0.0611,0.06,0.0611,0.0646,0.0572,0.0581,0.0422,0.0337,0.0205,0.0067,0.0072,-0.0055,-0.0085,-0.006,-0.0059,-0.0073,-0.0073,-0.0067,-0.0066,-0.0066,-0.0065,0,0.0496,0.0517,0.0566,0.0596,0.0605,0.0632,0.0675,0.0712,0.0711,0.0755,0.0753,0.069,0.0584,0.0418,0.0245,0.012,-0.0022,-0.0077,-0.0034,-0.0057,-0.0132,-0.0128,-0.0177,-0.0177,-0.0178,-0.0178,-0.0179,0,0.0519,0.0554,0.0612,0.0645,0.0659,0.0704,0.0741,0.0759,0.0812,0.0826,0.0856,0.0771,0.0731,0.048,0.0247,0.0022,-0.0016,-0.0111,-0.0134,-0.0118,-0.0142,-0.0138,-0.0133,-0.0132,-0.0132,-0.0132,-0.0132,0,0.0557,0.0581,0.0622,0.0701,0.0748,0.0812,0.0869,0.0925,0.0955,0.0997,0.103,0.0998,0.0767,0.0551,0.0243,0.0089,-0.0073,-0.0118,-0.0114,-0.01,-0.008,-0.0102,-0.0099,-0.0132,-0.0132,-0.0132,-0.0132,-0.0132,0.0579,0.0613,0.0678,0.0747,0.0814,0.0901,0.096,0.1041,0.1127,0.1188,0.1157,0.112,0.0868,0.0488,0.0215,-0.0073,-0.0062,-0.017,-0.0168,-0.0167,-0.0143,-0.0124,-0.018,-0.018,-0.0181,-0.0181,-0.0181,0,0.0602,0.0647,0.0718,0.0801,0.0882,0.0918,0.1033,0.1099,0.1208,0.1274,0.1305,0.1068,0.083,0.0535,0.0112,-0.0138,-0.016,-0.022,-0.0195,-0.0192,-0.0191,-0.0167,-0.0212,-0.0213,-0.0213,-0.0214,0,0,0.0614,0.0676,0.0713,0.0835,0.0905,0.1012,0.108,0.1186,0.1263,0.1327,0.1321,0.1288,0.0929,0.0618,0.0275,0.0028,-0.0024,-0.0019,0.0035,0.0108,0.0112,-0.0132,-0.0089,0,0,0,0,0]}],[{"header":{"parameterUnit":"m.s-1","parameterCategory":2,"la1":30.2991,"la2":30.254,"lo1":-89.0895,"lo2":-89.0444,"dy":0.0017,"dx":0.0017,"nx":28,"ny":28,"refTime":"2025-04-20T03:00:00:Z","depth":"4","parameterNumber":2,"parameterNumberName":"U-component_of_CURRENTS"},"data":[0,0,0,0,0,0,0,0,0,0,0,0,0,0,0,0,0,0,0,0,0,0,0,0,0,0,0,0,0,0,0,0,0,0,0,0,0,0,0,0,0,0,0,0,0,0,0,0,0,0,0,0,0,0,0,0,0,0,0.1549,0.1551,0,0.1633,0.1634,0.1634,0.169,0.1691,0.1691,0.1692,0.1764,0.1765,0.1767,0,0,0,0,0,0,0,0,0,0,0,0,0,0.1392,0.1395,0.1549,0.1551,0.1552,0.1633,0.1634,0.1634,0.169,0.1691,0.1692,0.1692,0.1764,0.1765,0.1767,0,0,0,0,0,0,0,0,0,0,0,0,0,0.1463,0.1396,0.1549,0.1593,0.1598,0.1633,0.1634,0.1635,0.169,0.1691,0.1692,0.1693,0.1763,0.1765,0.1767,0.1755,0,0,0.1772,0.1773,0,0,0,0,0,0,0,0,0.1459,0.1468,0.1585,0.159,0.1595,0.1656,0.1605,0.1676,0.1689,0.165,0.1692,0.1693,0.1729,0.1734,0.1741,0.1758,0.1762,0.1773,0.1774,0.1775,0.1775,0,0,0,0,0,0,0,0.1454,0.1464,0.1578,0.1586,0.1593,0.1593,0.1604,0.1618,0.1678,0.1654,0.1659,0.1675,0.1731,0.1739,0.1743,0.1763,0.1773,0.1774,0.1775,0.1776,0.188,0.1882,0,0,0,0,0,0,0.1454,0.146,0.1576,0.1581,0.1533,0.1595,0.1608,0.1632,0.1679,0.1688,0.1674,0.1677,0.1735,0.1741,0.1746,0.1829,0.1775,0.1776,0.1777,0.1878,0.188,0.1882,0,0,0,0,0,0,0.145,0.1463,0.1572,0.1525,0.154,0.1598,0.1624,0.1633,0.1678,0.1695,0.1704,0.1714,0.1736,0.1743,0.1791,0.1829,0.1777,0.1779,0.1876,0.1879,0.1881,0.1936,0,0,0,0,0,0,0.1445,0.1462,0.1491,0.1526,0.1543,0.1617,0.1624,0.1634,0.1686,0.1692,0.1732,0.1737,0.1738,0.1789,0.1793,0.1831,0.178,0.1874,0.1877,0.188,0.1932,0.194,0.1946,0,0,0,0,0,0.1439,0.147,0.1492,0.1507,0.1577,0.1618,0.1627,0.1668,0.1687,0.1711,0.1741,0.1738,0.1812,0.1791,0.1796,0.1835,0.1873,0.1877,0.188,0.1928,0.1938,0.1946,0,0,0,0,0,0,0.1413,0.148,0.1504,0.1554,0.1596,0.163,0.1666,0.1687,0.1729,0.1747,0.1756,0.1764,0.1821,0.182,0.1797,0.1875,0.1843,0.1848,0.1878,0.1888,0.1895,0.1897,0.1782,0,0,0,0,0,0.1422,0.1469,0.152,0.1563,0.1592,0.1635,0.1663,0.169,0.1727,0.1749,0.1775,0.1805,0.1833,0.1855,0.1876,0.1916,0.1916,0.1946,0.1953,0.196,0.1966,0.1998,0.2009,0.1895,0.1895,0.1894,0,0,0.1418,0.1468,0.1491,0.1562,0.1603,0.1644,0.1655,0.1712,0.1746,0.1748,0.1813,0.1834,0.185,0.1897,0.1923,0.1907,0.1994,0.1964,0.1969,0.1972,0.2003,0.2014,0.2024,0.1897,0.1897,0.1896,0,0,0.1432,0.1489,0.1533,0.1576,0.1651,0.1674,0.1699,0.1755,0.1789,0.1842,0.1856,0.1902,0.1943,0.1963,0.1975,0.2036,0.2031,0.2051,0.2091,0.2123,0.2133,0.2141,0.2157,0.2166,0.2055,0.2055,0.2055,0,0.1431,0.1496,0.1548,0.1602,0.1643,0.1692,0.1737,0.1773,0.1834,0.1863,0.1875,0.1955,0.1972,0.2025,0.2051,0.2053,0.2066,0.2054,0.2132,0.2141,0.2148,0.2162,0.2172,0.2058,0.2058,0.2057,0.2057,0,0.1465,0.1533,0.1567,0.1652,0.1694,0.1747,0.1801,0.1849,0.1893,0.1923,0.2,0.2029,0.2074,0.2092,0.2093,0.216,0.2151,0.2136,0.2107,0.2163,0.2174,0.2183,0.2062,0.2061,0.206,0.206,0,0,0.1423,0.1564,0.158,0.1634,0.1731,0.1763,0.1831,0.1896,0.1945,0.2006,0.2066,0.2124,0.2149,0.2166,0.2181,0.2214,0.228,0.2207,0.2207,0.2218,0.235,0.221,0.2206,0.2285,0.2287,0.2288,0.2337,0,0.1442,0.1548,0.1609,0.1697,0.1756,0.1822,0.1874,0.1937,0.1997,0.2064,0.2112,0.2177,0.2174,0.2214,0.2247,0.2277,0.2307,0.2268,0.2299,0.2299,0.2163,0.2212,0.2294,0.2343,0.2345,0.2346,0.2347,0,0.1447,0.1529,0.1626,0.174,0.177,0.1821,0.1918,0.1971,0.2064,0.2117,0.2189,0.2228,0.2302,0.2288,0.2363,0.2343,0.2355,0.2367,0.2369,0.2224,0.2175,0.2276,0.2363,0.2362,0.2361,0.236,0.2359,0,0.1386,0.1529,0.161,0.1654,0.1787,0.1838,0.1896,0.199,0.2048,0.2162,0.2217,0.2297,0.2355,0.2389,0.2422,0.2406,0.249,0.2462,0.2343,0.2333,0.242,0.2411,0.2508,0.2508,0.2508,0.2508,0.2508,0,0.1367,0.1432,0.1599,0.1644,0.1732,0.1823,0.1908,0.198,0.2089,0.2148,0.2244,0.2297,0.2388,0.2439,0.245,0.2422,0.2511,0.2356,0.2339,0.2442,0.2435,0.2426,0.2416,0.251,0.2509,0.2509,0.2509,0,0.1283,0.1396,0.1502,0.1664,0.1712,0.1774,0.1912,0.1964,0.2081,0.2164,0.2207,0.2327,0.2386,0.2448,0.2511,0.2442,0.2441,0.2407,0.2522,0.251,0.2255,0.2248,0.2269,0.2264,0.2261,0.2257,0.2255,0,0.1248,0.1304,0.1497,0.1564,0.1646,0.1754,0.1814,0.1947,0.1999,0.2153,0.2174,0.2288,0.2346,0.2317,0.2397,0.2405,0.2378,0.2357,0.2293,0.2251,0.2233,0.2231,0.2229,0.2249,0.2248,0.2247,0.2246,0,0.1188,0.1275,0.1365,0.1505,0.16,0.1681,0.1778,0.1803,0.1937,0.2064,0.2091,0.2122,0.2182,0.2221,0.225,0.225,0.2358,0.2316,0.2323,0.2263,0.2226,0.2212,0.2214,0.2233,0.2234,0.2236,0.2236,0,0.1144,0.1189,0.1323,0.143,0.1538,0.1577,0.164,0.1696,0.176,0.1918,0.1923,0.2038,0.2154,0.2142,0.2168,0.2161,0.2122,0.2044,0.2064,0.208,0.1996,0.192,0.1821,0,0,0,0,0,0.1095,0.1138,0.1234,0.1341,0.1437,0.1498,0.1602,0.1662,0.1786,0.1755,0.1833,0.1876,0.191,0.1977,0.1932,0.2093,0.2138,0.2031,0.2059,0.2159,0.2175,0.2094,0,0,0,0,0,0,0.1068,0.115,0.12,0.1243,0.1288,0.1369,0.1427,0.1512,0.15,0.1633,0.1663,0.1767,0.1833,0.1917,0.1898,0.1918,0.1898,0.2112,0.2107,0.2151,0.2165,0.2177,0.2099,0,0,0,0,0]},{"header":{"parameterUnit":"m.s-1","parameterCategory":2,"la1":30.2991,"la2":30.254,"lo1":-89.0895,"lo2":-89.0444,"dy":0.0017,"dx":0.0017,"nx":28,"ny":28,"refTime":"2025-04-20T03:00:00:Z","depth":"4","parameterNumber":3,"parameterNumberName":"V-component_of_CURRENTS"},"data":[0,0,0,0,0,0,0,0,0,0,0,0,0,0,0,0,0,0,0,0,0,0,0,0,0,0,0,0,0,0,0,0,0,0,0,0,0,0,0,0,0,0,0,0,0,0,0,0,0,0,0,0,0,0,0,0,0,0,0.0088,0.0088,0,0.0033,0.0033,0.0032,-0.0002,-0.0003,-0.0003,-0.0003,-0.0044,-0.0044,-0.0045,0,0,0,0,0,0,0,0,0,0,0,0,0,0.0101,0.0102,0.0088,0.0087,0.0087,0.0033,0.0033,0.0032,-0.0002,-0.0003,-0.0003,-0.0003,-0.0043,-0.0044,-0.0045,0,0,0,0,0,0,0,0,0,0,0,0,0,0.0076,0.0102,0.0088,0.0064,0.0061,0.0034,0.0033,0.0032,-0.0002,-0.0003,-0.0003,-0.0003,-0.0043,-0.0044,-0.0046,-0.005,0,0,-0.005,-0.0051,0,0,0,0,0,0,0,0,0.0077,0.0075,0.0068,0.0065,0.0062,0.0022,0.0022,0.0005,-0.0002,0.0021,-0.0003,-0.0003,-0.002,-0.0023,-0.0034,-0.0052,-0.0054,-0.005,-0.0051,-0.0052,-0.0052,0,0,0,0,0,0,0,0.0079,0.0077,0.0066,0.0067,0.0064,0.0034,0.0031,0.0018,0.0003,0.0019,0.0017,0.0011,-0.0021,-0.0032,-0.0035,-0.0054,-0.005,-0.0051,-0.0052,-0.0053,-0.008,-0.008,0,0,0,0,0,0,0.0091,0.0079,0.0068,0.0064,0.007,0.0035,0.0031,0.0035,0.0002,-0.0003,0.0012,0.001,-0.003,-0.0033,-0.0036,-0.0031,-0.0052,-0.0053,-0.0054,-0.008,-0.008,-0.0079,0,0,0,0,0,0,0.0091,0.009,0.007,0.007,0.0065,0.0035,0.004,0.0034,0.0025,-0.0003,-0.0009,0.0008,-0.003,-0.0034,-0.0045,-0.0033,-0.0053,-0.0055,-0.008,-0.008,-0.008,-0.0028,0,0,0,0,0,0,0.0092,0.0091,0.0098,0.0071,0.0066,0.0061,0.004,0.0033,0.0022,0.0019,-0.0008,-0.0012,-0.0031,-0.0043,-0.0046,-0.0036,-0.0056,-0.008,-0.008,-0.008,-0.003,-0.0026,-0.0023,0,0,0,0,0,0.0093,0.0108,0.0099,0.0097,0.0077,0.0062,0.0056,0.0033,0.0022,0.0022,0.0002,-0.0011,-0.0044,-0.0044,-0.0048,-0.0037,-0.008,-0.008,-0.008,-0.0032,-0.0027,-0.0023,0,0,0,0,0,0,0.0116,0.0105,0.0095,0.0105,0.0087,0.0056,0.0056,0.0037,0.002,0.0019,-0.0009,-0.0015,-0.0021,-0.0038,-0.0037,-0.0046,-0.0064,-0.0065,-0.0026,-0.0022,-0.0019,-0.0005,-0.0057,0,0,0,0,0,0.0125,0.0134,0.0113,0.0119,0.0115,0.0085,0.0076,0.006,0.004,0.0032,0.0012,-0.0008,-0.0024,-0.0029,-0.0046,-0.0048,-0.0072,-0.0046,-0.0042,-0.0039,-0.0031,-0.0062,-0.006,-0.0079,-0.0079,-0.0079,0,0,0.0134,0.0129,0.0133,0.0124,0.011,0.011,0.008,0.0072,0.0071,0.0032,0.0028,0.0004,-0.0023,-0.0027,-0.0031,-0.0038,-0.0046,-0.0039,-0.0035,-0.0029,-0.0061,-0.0059,-0.0058,-0.0078,-0.0078,-0.0078,0,0,0.0158,0.0155,0.0171,0.0161,0.0146,0.013,0.0131,0.0105,0.0094,0.0083,0.0056,0.0039,0.0016,-0.0,-0.0011,0.0001,-0.0029,-0.0005,0.0028,-0.0001,0.0,0.0001,-0.0025,-0.0027,-0.0001,-0.0,-0.0,0,0.0167,0.0185,0.017,0.018,0.0178,0.0144,0.0156,0.014,0.0112,0.0108,0.0091,0.0052,0.003,0.0024,0.0027,0.0011,-0.0012,0.0017,0.0004,0.0005,0.0005,-0.0022,-0.0025,0.0002,0.0002,0.0002,0.0001,0,0.0201,0.0213,0.0222,0.0226,0.0222,0.0226,0.0206,0.0199,0.018,0.0161,0.0146,0.0108,0.0087,0.0075,0.0056,0.0049,0.003,0.0011,-0.0003,0.001,-0.002,-0.0023,0.0006,0.0005,0.0004,0.0003,0,0,0.0223,0.0243,0.0245,0.0256,0.0248,0.0248,0.0253,0.0246,0.0253,0.0217,0.0219,0.0183,0.0159,0.0144,0.0113,0.0087,0.0066,0.0055,0.0053,0.0036,0.0002,-0.0006,-0.0011,0.0043,0.0043,0.0042,-0.0019,0,0.025,0.0287,0.0286,0.0313,0.0329,0.0308,0.0315,0.0304,0.029,0.0283,0.0239,0.0228,0.0186,0.0178,0.0146,0.0087,0.0059,0.0085,-0.0014,-0.0016,-0.002,-0.0014,0.0041,-0.0022,-0.0023,-0.0023,-0.0024,0,0.0279,0.0301,0.0341,0.0361,0.0366,0.0376,0.0385,0.0388,0.0371,0.0361,0.0339,0.0301,0.0265,0.0223,0.0132,0.0149,0.0084,0.0032,0.0028,0.0003,-0.003,-0.004,-0.0031,-0.003,-0.003,-0.0029,-0.0029,0,0.0302,0.0335,0.0372,0.0378,0.0396,0.0409,0.0415,0.0412,0.0429,0.0414,0.0421,0.0362,0.0339,0.0249,0.0143,0.0137,0.0036,0.0011,-0.0059,-0.0061,-0.0058,-0.0059,-0.0056,-0.0056,-0.0056,-0.0055,-0.0055,0,0.0327,0.0353,0.0387,0.0405,0.0444,0.0443,0.0484,0.048,0.0493,0.0519,0.0466,0.0466,0.0343,0.0269,0.0163,0.0046,0.0049,-0.0049,-0.0075,-0.0036,-0.0033,-0.0061,-0.0061,-0.0058,-0.0057,-0.0057,-0.0056,0,0.0338,0.0364,0.0406,0.0442,0.0458,0.0483,0.0535,0.0565,0.057,0.0601,0.06,0.0546,0.045,0.032,0.0175,0.0082,-0.0036,-0.0081,-0.0021,-0.0044,-0.0119,-0.0116,-0.0163,-0.0163,-0.0164,-0.0165,-0.0165,0,0.0346,0.037,0.0433,0.0467,0.0485,0.0534,0.057,0.0599,0.0637,0.0649,0.0663,0.059,0.0533,0.0334,0.0187,-0.0012,-0.0047,-0.0112,-0.0124,-0.0109,-0.013,-0.0125,-0.0121,-0.0166,-0.0166,-0.0166,-0.0166,0,0.0351,0.0376,0.0412,0.0488,0.0538,0.0602,0.0656,0.0691,0.0722,0.0734,0.072,0.0616,0.0509,0.0344,0.019,0.0043,-0.0072,-0.012,-0.012,-0.0131,-0.0114,-0.0133,-0.0128,-0.0169,-0.0168,-0.0168,-0.0168,0,0.0348,0.0372,0.0428,0.0494,0.0568,0.0639,0.0673,0.0718,0.0754,0.0766,0.076,0.0644,0.0581,0.0372,0.023,0.0087,0.0041,-0.0017,-0.0024,-0.0023,0.0029,0.0073,0.0058,0,0,0,0,0,0.0337,0.0369,0.0431,0.0506,0.0588,0.0634,0.0715,0.0748,0.0784,0.0782,0.0775,0.0675,0.0473,0.0392,0.0248,0.0197,0.0002,0.002,-0.0072,-0.0181,-0.0178,-0.0142,0,0,0,0,0,0,0.0331,0.038,0.042,0.0511,0.0566,0.0655,0.071,0.0739,0.0744,0.0759,0.0663,0.0622,0.0433,0.0553,0.0239,0.0197,0.0114,-0.0067,-0.0071,-0.0182,-0.018,-0.0178,-0.014,0,0,0,0,0]}]]